This demonstration page uses our WeatherBlox Daily Observations layout. Learn more.

Left ArrowRight Arrow

Hourly Observations for November 29, 2020

Temp ( °F °C ) Dew Point ( °F °C ) Humidity (%) Winds ( mph kmh ) Pressure ( in mb ) Visibility ( mi km ) Precip ( " mm )
12:56 am 00:56 Clear 37 2.8 24 -4.4 59 59 WSW 14 22 30.04 1017 10 16 0.00 0.00
1:56 am 01:56 Clear 34 1.1 22 -5.6 61 61 W 7 11 30.07 1018 10 16 0.00 0.00
2:56 am 02:56 Clear 36 2.2 21 -6.1 55 55 NNW 14 22 30.08 1019 10 16 0.00 0.00
3:56 am 03:56 Clear 38 3.3 21 -6.1 51 51 N 25 41 30.11 1020 10 16 0.00 0.00
4:56 am 04:56 Clear 38 3.3 19 -7.2 46 46 N 24 39 30.16 1021 10 16 0.00 0.00
5:56 am 05:56 Clear 37 2.8 20 -6.7 50 50 N 28 44 30.21 1023 10 16 0.00 0.00
6:56 am 06:56 Clear 35 1.7 20 -6.7 54 54 N 25 41 30.27 1025 10 16 0.00 0.00
7:56 am 07:56 Sunny 33 0.6 21 -6.1 61 61 N 32 52 30.32 1027 10 16 0.00 0.00
8:56 am 08:56 Sunny 34 1.1 22 -5.6 61 61 N 24 39 30.38 1029 10 16 0.00 0.00
9:56 am 09:56 Partly Cloudy 33 0.6 21 -6.1 61 61 N 31 50 30.41 1030 10 16 0.00 0.00
10:56 am 10:56 Sunny 35 1.7 20 -6.7 54 54 N 30 48 30.43 1031 10 16 0.00 0.00
11:56 am 11:56 Sunny 36 2.2 18 -7.8 48 48 N 26 43 30.43 1031 10 16 0.00 0.00
12:56 pm 12:56 Sunny 36 2.2 15 -9.4 42 42 N 29 46 30.42 1030 10 16 0.00 0.00
1:56 pm 13:56 Sunny 36 2.2 14 -10 40 40 NNW 25 41 30.44 1031 10 16 0.00 0.00
2:56 pm 14:56 Sunny 37 2.8 12 -11.1 36 36 NNW 26 43 30.42 1030 10 16 0.00 0.00
3:56 pm 15:56 Sunny 37 2.8 12 -11.1 36 36 NNW 21 33 30.43 1030 10 16 0.00 0.00
4:56 pm 16:56 Sunny 34 1.1 11 -11.7 38 38 NNW 14 22 30.45 1031 10 16 0.00 0.00
5:56 pm 17:56 Clear 30 -1.1 13 -10.6 49 49 NNW 12 19 30.48 1032 10 16 0.00 0.00
6:56 pm 18:56 Clear 26 -3.3 12 -11.1 55 55 NNW 7 11 30.50 1033 10 16 0.00 0.00
7:56 pm 19:56 Clear 25 -3.9 11 -11.7 55 55 NW 9 15 30.51 1033 10 16 0.00 0.00
8:56 pm 20:56 Clear 20 -6.7 10 -12.2 65 65 WNW 8 13 30.52 1033 10 16 0.00 0.00
9:56 pm 21:56 Clear 20 -6.7 11 -11.7 68 68 WNW 10 17 30.52 1033 10 16 0.00 0.00
10:56 pm 22:56 Clear 17 -8.3 10 -12.2 74 74 WNW 10 17 30.52 1034 10 16 0.00 0.00
11:56 pm 23:56 Clear 16 -8.9 9 -12.8 74 74 WNW 9 15 30.52 1034 10 16 0.00 0.00

Powered by AerisWeather